Location: Trebic
(49.2170°N, 15.8830°E)
Time: 22:27:14
(UTC+02:00)

Transit 4A - Pass Details

Date: 30 July 2019
Orbit: 863 x 981 km, 66.8° (Epoch: 18 August)

Event Time Altitude Azimuth Distance (km) Brightness Sun altitude
Rises 04:37:14 0° 297° (WNW) 3,690 10.8 -7.2°
Reaches altitude 10° 04:41:00 10° 319° (NW) 2,739 10.3 -6.8°
Maximum altitude 04:44:49 16° 356° (N) 2,318 10.5 -6.3°
Drops below altitude 10° 04:48:35 10° 32° (NNE) 2,716 11.7 -5.8°
Sets 04:52:19 0° 54° (NE) 3,643 14.1 -5.3°
